GW5989 Weather Reports


time (UTC)temp
C
wind
direction
speed
KPH
gust
KPH
rain 1hr
cm
rain 24hr
cm
rain mn
cm
humidity
%
barometer
mb
20260502152010 17 59 6.4 11.3 0.00 2.13 0.00 62 1023.5
20260502151521 17 5 8.0 12.9 0.00 2.13 0.00 62 1023.5
20260502151012 17 14 6.4 16.1 0.00 2.13 0.00 65 1023.5
20260502150510 16 5 8.0 16.1 0.00 2.13 0.00 64 1023.5
20260502130507 12 286 4.8 12.9 0.00 2.72 0.00 85 1022.1
20260502123504 10 298 4.8 11.3 0.00 2.72 0.00 90 1021.7
20260502123008 10 298 3.2 9.7 0.00 2.74 0.00 90 1021.6
20260502122505 10 290 3.2 6.4 0.00 2.79 0.00 91 1021.5
20260502122007 10 241 3.2 6.4 0.00 2.90 0.00 91 1021.3
20260502121522 10 292 1.6 4.8 0.00 2.95 0.00 91 1021.3
20260502121004 9 203 0.0 3.2 0.00 2.97 0.00 91 1021.2
20260502120508 9 294 0.0 0.0 0.00 3.02 0.00 91 1021.1
20260502115507 9 294 0.0 3.2 0.00 3.15 0.00 90 1021.0
20260502115010 9 294 0.0 3.2 0.00 3.17 0.00 90 1021.0
20260502114524 9 294 0.0 1.6 0.00 3.23 0.00 90 1020.9
20260502114009 9 294 0.0 3.2 0.00 3.28 0.00 90 1020.8
20260502113502 9 294 0.0 3.2 0.00 3.33 0.00 90 1020.8
20260502113013 9 294 0.0 3.2 0.00 3.35 0.00 90 1020.8
20260502112506 9 294 0.0 3.2 0.00 3.38 0.00 89 1020.7
20260502112005 9 294 0.0 3.2 0.00 3.40 0.00 88 1020.6
20260502111512 10 294 0.0 3.2 0.00 3.40 0.00 87 1020.6
20260502111006 10 294 0.0 3.2 0.00 3.43 0.00 87 1020.6
20260502110507 10 294 0.0 3.2 0.00 3.43 0.00 86 1020.6
20260502110018 10 294 1.6 4.8 0.00 3.45 0.00 85 1020.5
20260502105504 11 349 0.0 6.4 0.00 3.51 0.00 85 1020.5
20260502105008 11 349 3.2 6.4 0.00 3.53 0.00 85 1020.4
20260502104537 11 328 1.6 6.4 0.00 3.58 0.00 85 1020.3
20260502104008 11 328 3.2 6.4 0.00 3.66 0.00 85 1020.3
20260502103509 11 360 1.6 6.4 0.00 3.68 0.00 85 1020.1
20260502103022 11 320 1.6 6.4 0.00 3.73 0.00 85 1020.0
20260502102508 11 11 1.6 6.4 0.00 3.76 0.00 85 1020.0
20260502102005 11 9 3.2 8.0 0.00 3.78 0.00 85 1019.7
20260502101512 11 312 1.6 8.0 0.00 3.84 0.00 85 1019.7
20260502101005 11 360 3.2 6.4 0.00 3.86 0.00 85 1019.6
20260502100508 11 300 3.2 6.4 0.00 3.86 0.00 85 1019.6
20260502091529 11 20 4.8 9.7 0.00 4.06 0.00 85 1018.7
20260502091004 11 30 4.8 9.7 0.00 4.11 0.00 85 1018.7
20260502090505 11 309 4.8 12.9 0.00 4.17 0.00 85 1018.6
20260502070513 11 50 3.2 9.7 0.00 4.95 0.00 84 1018.2
20260502070025 12 5 4.8 9.7 0.00 4.95 0.00 85 1018.2
20260502065510 12 24 4.8 12.9 0.00 4.95 0.00 85 1018.3
20260502065015 12 17 4.8 12.9 0.00 4.98 0.00 85 1018.3
20260502064004 12 350 4.8 12.9 0.00 5.03 0.00 85 1018.3
20260502063507 12 343 6.4 12.9 0.00 5.05 0.00 85 1018.4
20260502062509 12 329 4.8 9.7 0.00 5.11 0.00 85 1018.6
20260502062010 12 320 4.8 9.7 0.00 5.16 0.00 85 1018.7
20260502060508 12 352 4.8 8.0 0.00 5.16 0.00 86 1018.6
20260502055509 12 321 1.6 6.4 0.00 5.16 0.00 86 1018.7
20260502055011 12 352 3.2 6.4 0.00 5.16 0.00 86 1018.7
20260502054525 12 340 3.2 9.7 0.00 5.16 0.00 86 1018.7
20260502054016 12 15 3.2 9.7 0.00 5.16 0.00 86 1018.6
20260502053509 12 318 1.6 8.0 0.00 5.16 0.00 86 1018.6
20260502053016 12 17 4.8 8.0 0.00 5.16 0.00 86 1018.5
20260502052507 12 9 3.2 8.0 0.00 5.16 0.00 86 1018.5
20260502052009 12 352 3.2 8.0 0.00 5.16 0.00 86 1018.5
20260502051501 12 22 3.2 6.4 0.00 5.16 0.00 86 1018.6
20260502051002 12 344 3.2 6.4 0.00 5.16 0.00 85 1018.5
20260502050501 12 34 3.2 6.4 0.00 5.16 0.00 85 1018.5
20260502045502 12 17 3.2 9.7 0.00 5.16 5.16 84 1018.4
20260502045003 12 28 4.8 12.9 0.00 5.16 5.16 84 1018.4
20260502044510 12 26 4.8 12.9 0.00 5.16 5.16 83 1018.5
20260502044005 12 16 4.8 12.9 0.00 5.16 5.16 83 1018.6
20260502043504 12 340 3.2 12.9 0.00 5.16 5.16 83 1018.6
20260502042507 12 27 4.8 14.5 0.00 5.16 5.16 83 1018.5
20260502042008 12 29 4.8 14.5 0.00 5.16 5.16 82 1018.5
20260502041517 12 46 6.4 17.7 0.00 5.16 5.16 82 1018.5
20260502041005 12 28 9.7 17.7 0.00 5.16 5.16 82 1018.5
20260502035501 12 30 4.8 16.1 0.00 5.16 5.16 82 1018.4
20260502035001 12 5 8.0 20.9 0.00 5.16 5.16 82 1018.5
20260502034514 12 21 8.0 24.1 0.00 5.16 5.16 82 1018.5
20260502034001 12 59 8.0 24.1 0.00 5.16 5.16 82 1018.5
20260502033504 12 15 8.0 19.3 0.00 5.16 5.16 83 1018.4
20260502032505 12 5 8.0 20.9 0.00 5.18 5.16 83 1018.3
20260502032006 12 34 8.0 20.9 0.00 5.18 5.16 83 1018.2
20260502031518 12 360 11.3 20.9 0.00 5.18 5.16 83 1018.2
20260502031005 12 22 9.7 20.9 0.00 5.18 5.16 84 1018.1
20260502030506 12 59 9.7 20.9 0.00 5.18 5.16 84 1018.1
20260502030018 12 24 9.7 20.9 0.00 5.18 5.16 84 1018.1
20260502025508 12 26 11.3 20.9 0.00 5.18 5.16 84 1017.9
20260502025001 12 28 8.0 16.1 0.00 5.18 5.16 84 1017.8
20260502024515 12 53 8.0 19.3 0.00 5.18 5.16 84 1017.7
20260502024002 12 352 11.3 20.9 0.00 5.18 5.16 84 1017.6
20260502023502 12 57 11.3 20.9 0.00 5.18 5.16 84 1017.6
20260502022504 12 71 9.7 19.3 0.00 5.18 5.16 84 1017.3
20260502022006 12 50 8.0 20.9 0.00 5.18 5.16 85 1017.3
20260502021005 12 63 8.0 19.3 0.00 5.18 5.16 86 1017.2
20260502020505 12 48 9.7 19.3 0.00 5.18 5.16 86 1017.2
20260502020022 12 47 8.0 20.9 0.00 5.18 5.16 87 1017.1
20260502015505 12 62 8.0 20.9 0.00 5.18 5.16 87 1016.9
20260502015007 12 350 9.7 17.7 0.00 5.18 5.16 87 1016.8
20260502014520 12 360 4.8 20.9 0.00 5.18 5.16 88 1016.7
20260502014001 12 311 9.7 20.9 0.00 5.18 5.16 88 1016.5
20260502013501 12 352 6.4 17.7 0.00 5.18 5.16 88 1016.5
20260502013007 12 40 8.0 17.7 0.00 5.18 5.16 88 1016.4
20260502012504 12 352 9.7 19.3 0.00 5.18 5.16 88 1016.4
20260502012001 12 30 9.7 19.3 0.00 5.18 5.16 88 1016.3
20260502011534 12 44 8.0 19.3 0.00 5.18 5.16 88 1016.2
20260502011005 12 22 6.4 19.3 0.00 5.18 5.16 88 1016.3
20260502010505 12 41 6.4 17.7 0.00 5.18 5.16 89 1016.2
20260502005505 12 352 9.7 20.9 0.00 5.18 5.16 89 1016.1
20260502005007 13 346 8.0 20.9 0.00 5.18 5.16 89 1016.0
20260502004522 12 344 6.4 19.3 0.00 5.18 5.16 89 1015.9
20260502004007 13 314 8.0 16.1 0.00 5.18 5.16 89 1015.8
20260502003508 13 346 8.0 20.9 0.00 5.18 5.16 89 1015.6
20260502003026 13 360 9.7 20.9 0.00 5.18 5.16 89 1015.2
20260502002502 13 43 9.7 29.0 0.00 5.18 5.16 89 1015.0
20260502002003 13 60 14.5 29.0 0.00 5.18 5.16 89 1015.1
20260502001515 13 48 14.5 29.0 0.00 5.18 5.16 89 1015.0
20260502001003 13 43 14.5 24.1 0.00 5.18 5.16 89 1015.1
20260502000503 13 29 11.3 24.1 0.00 5.18 5.16 89 1015.0
20260502000013 13 17 16.1 24.1 0.00 5.18 5.16 89 1014.9
20260501235509 13 41 14.5 25.7 0.00 5.18 5.16 89 1014.7
20260501235034 13 18 11.3 25.7 0.00 5.18 5.16 89 1014.6
20260501234524 13 360 11.3 25.7 0.00 5.18 5.16 89 1014.7
20260501234006 13 29 12.9 24.1 0.03 5.18 5.16 89 1014.9
20260501233506 13 13 14.5 22.5 0.03 5.18 5.16 89 1015.0
20260501233020 13 32 14.5 22.5 0.03 5.18 5.16 89 1014.9
20260501232511 13 28 14.5 22.5 0.03 5.18 5.16 89 1014.9
20260501232009 13 5 11.3 22.5 0.03 5.18 5.16 89 1015.0
20260501231004 13 9 11.3 24.1 0.05 5.18 5.16 89 1014.7
20260501230506 13 346 12.9 24.1 0.05 5.18 5.16 89 1014.6
20260501225505 13 52 6.4 22.5 0.10 5.18 5.16 90 1014.5
20260501225014 13 22 8.0 22.5 0.18 5.18 5.16 90 1014.4
20260501224006 13 11 12.9 25.7 0.23 5.16 5.13 90 1014.2
20260501223505 13 334 12.9 24.1 0.25 5.16 5.13 90 1014.1
20260501223022 13 24 11.3 20.9 0.28 5.16 5.13 90 1013.9
20260501222506 14 24 4.8 17.7 0.30 5.16 5.13 91 1014.3
20260501222010 13 329 9.7 25.7 0.36 5.16 5.13 91 1014.1
20260501221522 14 5 9.7 25.7 0.38 5.13 5.11 91 1014.1
20260501221006 14 29 11.3 27.4 0.43 5.13 5.11 91 1014.0
20260501220512 14 330 9.7 22.5 0.48 5.13 5.11 91 1013.9
20260501220010 14 352 9.7 20.9 0.53 5.11 5.08 91 1013.9
20260501215506 14 21 11.3 22.5 0.61 5.08 5.05 91 1014.0
20260501215008 14 39 8.0 22.5 0.58 5.00 4.98 91 1014.0
20260501214008 14 321 6.4 19.3 0.64 4.93 4.90 90 1014.3
20260501213507 14 12 6.4 17.7 0.69 4.90 4.88 91 1014.0
20260501213028 14 46 6.4 20.9 0.76 4.88 4.85 91 1013.7
20260501212507 14 337 8.0 27.4 0.84 4.85 4.83 91 1013.4
20260501212003 14 292 12.9 22.5 0.81 4.80 4.78 91 1013.5
20260501211504 14 28 8.0 22.5 0.76 4.75 4.72 91 1013.2
20260501211006 14 345 9.7 27.4 0.71 4.70 4.67 91 1013.3
20260501210502 14 115 9.7 27.4 0.71 4.65 4.62 91 1013.4
20260501210006 14 298 8.0 25.7 0.64 4.57 4.55 91 1012.8
20260501205504 14 309 6.4 20.9 0.53 4.47 4.45 91 1012.7
20260501205003 14 352 9.7 20.9 0.48 4.42 4.39 91 1012.4
20260501204512 14 352 9.7 19.3 0.43 4.37 4.34 91 1011.9
20260501204005 14 28 12.9 19.3 0.36 4.29 4.27 91 1011.9
20260501203504 14 309 8.0 19.3 0.28 4.22 4.19 90 1011.9
20260501203019 15 34 9.7 19.3 0.20 4.11 4.09 90 1012.0
20260501202508 15 30 6.4 19.3 0.10 4.01 3.99 90 1011.9
20260501202007 15 360 9.7 20.9 0.13 3.99 3.96 90 1012.1
20260501201522 15 24 12.9 29.0 0.18 3.99 3.96 90 1011.4
20260501201006 15 27 17.7 29.0 0.18 3.99 3.96 90 1010.8
20260501200506 15 47 14.5 24.1 0.13 3.94 3.91 90 1011.1
20260501200007 15 15 14.5 22.5 0.13 3.94 3.91 89 1011.7
20260501195503 15 352 11.3 22.5 0.13 3.94 3.91 90 1012.0
20260501195003 15 38 11.3 22.5 0.13 3.94 3.91 90 1012.2
20260501194004 15 9 8.0 17.7 0.13 3.94 3.91 91 1012.3
20260501193503 15 59 6.4 17.7 0.13 3.94 3.91 90 1012.7
20260501193032 15 314 11.3 17.7 0.13 3.91 3.89 90 1013.7
20260501192504 15 313 8.0 17.7 0.15 3.91 3.89 90 1013.4
20260501192008 15 56 9.7 20.9 0.15 3.86 3.84 90 1013.1
20260501191529 15 317 9.7 20.9 0.15 3.81 3.78 90 1013.8
20260501191011 15 292 6.4 19.3 0.23 3.84 3.78 91 1013.8
20260501190514 15 340 11.3 25.7 0.33 3.91 3.78 91 1012.8
20260501190045 15 323 9.7 25.7 0.38 4.24 3.78 91 1012.1
20260501185502 15 5 12.9 25.7 0.46 4.24 3.78 91 1012.0
20260501185004 15 37 11.3 25.7 0.48 4.24 3.78 92 1011.7
20260501184507 15 360 9.7 22.5 0.51 4.24 3.78 92 1011.8
20260501184006 15 54 11.3 22.5 0.53 4.24 3.78 92 1011.9
20260501183505 15 51 11.3 22.5 0.56 4.24 3.78 92 1012.1
20260501183021 15 336 9.7 19.3 0.56 4.22 3.76 92 1012.7
20260501182503 15 360 9.7 20.9 0.53 4.19 3.73 92 1012.6
20260501182004 14 43 11.3 20.9 0.48 4.14 3.68 92 1013.0
20260501181517 15 311 12.9 20.9 0.43 4.09 3.63 92 1014.1
20260501181004 15 292 12.9 20.9 0.36 4.01 3.56 92 1014.4
20260501180509 15 315 8.0 20.9 0.25 3.91 3.45 92 1014.2
20260501180019 15 304 12.9 20.9 0.20 3.86 3.40 91 1014.1
20260501175507 15 324 8.0 20.9 0.13 3.78 3.33 92 1014.1
20260501175008 15 315 8.0 19.3 0.10 3.76 3.30 91 1014.0
20260501174527 15 327 8.0 19.3 0.08 3.73 3.28 91 1013.4
20260501174003 15 344 9.7 20.9 0.05 3.71 3.25 91 1012.5
20260501173503 15 27 11.3 20.9 0.03 3.68 3.23 91 1011.6
20260501173010 15 352 12.9 24.1 0.00 3.66 3.20 91 1012.5
20260501172505 15 46 12.9 24.1 0.00 3.66 3.20 91 1012.9
20260501172005 15 5 8.0 19.3 0.00 3.66 3.20 91 1013.2
20260501171004 15 57 12.9 24.1 0.00 3.66 3.20 91 1013.1
20260501170509 15 22 12.9 22.5 0.00 3.66 3.20 91 1012.9
20260501170020 15 24 11.3 19.3 0.00 3.66 3.20 92 1012.7
20260501165509 15 37 8.0 25.7 0.00 3.66 3.20 92 1012.5
20260501165007 15 51 14.5 25.7 0.05 3.66 3.20 92 1012.1
20260501164529 15 52 9.7 22.5 0.08 3.66 3.20 92 1012.2
20260501164007 15 62 16.1 22.5 0.13 3.66 3.20 92 1012.3
20260501163510 15 31 8.0 20.9 0.15 3.66 3.20 92 1012.6
20260501163009 15 48 12.9 22.5 0.15 3.66 3.20 92 1012.3
20260501162504 15 71 14.5 22.5 0.18 3.66 3.20 92 1012.5
20260501162004 15 60 11.3 24.1 0.18 3.66 3.20 92 1012.8
20260501161518 15 32 11.3 24.1 0.18 3.66 3.20 92 1012.7
20260501161004 15 34 9.7 25.7 0.18 3.66 3.20 93 1012.7
20260501160505 15 17 9.7 35.4 0.18 3.66 3.20 93 1012.0
20260501160016 15 63 16.1 40.2 0.18 3.66 3.20 92 1011.3
20260501155508 15 55 24.1 40.2 0.18 3.66 3.20 92 1010.3
20260501155008 15 90 25.7 33.8 0.13 3.61 3.15 92 1011.0
20260501154526 15 75 17.7 25.7 0.10 3.58 3.12 92 1012.5
20260501154007 15 25 9.7 16.1 0.05 3.53 3.07 92 1013.6
20260501153508 15 38 6.4 17.7 0.05 3.51 3.05 92 1014.1
20260501153022 15 284 11.3 20.9 0.08 3.51 3.05 92 1014.5
20260501152512 15 65 9.7 20.9 0.08 3.48 3.02 92 1013.6